This is the latest recevied weather packets stored in our database for station/object LZ0VRC-10. If no packets are shown the sender has not sent any weather packets the latest 10 day(s).
| Time | Temp. | Humidity | Pressure | Rain* | Wind** | Luminosity | Snow |
|---|---|---|---|---|---|---|---|
| 1777547868 | 5.56° C | 99% | 1024.6 hPa | - | - | - | - |
| 1777547864 | 5.56° C | 99% | 1024.6 hPa | - | - | - | - |
| 1777546972 | 5° C | 99% | 1024.6 hPa | - | - | - | - |
| 1777546964 | 5° C | 99% | 1024.6 hPa | - | - | - | - |
| 1777546069 | 5.56° C | 99% | 1024.5 hPa | - | - | - | - |
| 1777546064 | 5.56° C | 99% | 1024.5 hPa | - | - | - | - |
| 1777545164 | 5.56° C | 99% | 1024.3 hPa | - | - | - | - |
| 1777544269 | 5.56° C | 99% | 1024.1 hPa | - | - | - | - |
| 1777544264 | 5.56° C | 99% | 1024.1 hPa | - | - | - | - |
| 1777543372 | 6.11° C | 99% | 1024.1 hPa | - | - | - | - |
| 1777543364 | 6.11° C | 99% | 1024.1 hPa | - | - | - | - |
| 1777542469 | 5.56° C | 99% | 1023.9 hPa | - | - | - | - |
| 1777542464 | 5.56° C | 99% | 1023.9 hPa | - | - | - | - |
| 1777541569 | 5.56° C | 99% | 1023.9 hPa | - | - | - | - |
| 1777541564 | 5.56° C | 99% | 1023.9 hPa | - | - | - | - |
| 1777540664 | 5.56° C | 99% | 1023.4 hPa | - | - | - | - |
| 1777539769 | 5.56° C | 99% | 1023.2 hPa | - | - | - | - |
| 1777539764 | 5.56° C | 99% | 1023.2 hPa | - | - | - | - |
| 1777538646 | 6.67° C | 99% | 1022.8 hPa | - | - | - | - |
| 1777536987 | 6.67° C | 99% | 1022.4 hPa | - | - | - | - |
| 1777535959 | 6.67° C | 99% | 1022 hPa | - | - | - | - |
| 1777535954 | 6.67° C | 99% | 1022 hPa | - | - | - | - |
| 1777535011 | 7.22° C | 99% | 1021.9 hPa | - | - | - | - |
| 1777534116 | 7.22° C | 99% | 1021.8 hPa | - | - | - | - |
| 1777534111 | 7.22° C | 99% | 1021.8 hPa | - | - | - | - |
* Rain since midnight (hover to see other rain measurements)
** Current wind speed in m/s (hover to see current wind gust speed)